Location: Casilda
(33.0440°S, 61.1680°W)
Time: 18:17:06
(UTC-03:00)

ISS - Pass Details

Date: 20 March 2023
Orbit: 413 x 421 km, 51.6° (Epoch: 30 March)

Event Time Altitude Azimuth Distance (km) Brightness Sun altitude
Exits shadow 06:02:10 12° 338° (NNW) 1,374 -1.5 -14.5°
Maximum altitude 06:05:03 42° 48° (NE) 617 -2.6 -13.9°
Drops below altitude 10° 06:08:19 10° 120° (ESE) 1,527 0.3 -13.2°
Sets 06:10:30 0° 127° (SE) 2,402 1.3 -12.8°
